Regional Weather Roundup
Issued by NWS Cleveland, OH

Home | Current Version | Previous Version | Graphics & Text | Print | Product List | Glossary On
Versions: 1 2 3 4 5 6 7 8 9 10 11 12 13 14 15 16 17 18 19 20 21 22 23 24 25 26 27 28 29 30 31 32 33 34 35 36 37 38 39 40 41 42 43 44 45 46 47 48 49 50
000
ASUS41 KCLE 240202
RWRCLE
OHIO REGIONAL WEATHER ROUNDUP
NATIONAL WEATHER SERVICE CLEVELAND, OH
1000 PM EDT SUN APR 23 2017

NOTE: "FAIR" INDICATES FEW OR NO CLOUDS BELOW 12,000 FEET WITH NO
SIGNIFICANT WEATHER AND/OR OBSTRUCTIONS TO VISIBILITY.

OHZ001>008-015>018-024>027-034-035-043-044-240300-
   NORTHWEST OHIO

CITY           SKY/WX    TMP DP  RH WIND       PRES   REMARKS
DEFIANCE       CLEAR     53  28  38 SE3       30.06R
FINDLAY        PTCLDY    52  31  44 NE9       30.05R
TOLEDO EXPRESS CLEAR     54  28  36 SE3       30.07R
TOLEDO EXEC    CLEAR     54  32  43 CALM      30.07R
LIMA           CLEAR     53  34  48 NE6       30.05R
$$

OHZ009>014-019>023-028>033-038-089-240300-
   NORTHEAST OHIO

CITY           SKY/WX    TMP DP  RH WIND       PRES   REMARKS
CLE-HOPKINS    CLOUDY    50  33  52 CALM      30.09R
CLE-LAKEFRONT  CLOUDY    52  46  80 NE3       30.06R
CUY CO. ARPT   CLEAR     50  36  57 E6        30.07S
LORAIN-ELYRIA  CLEAR     48  32  53 CALM      30.08R
ASHTABULA      CLOUDY    45  34  65 CALM      30.08R
AKRON-CANTON   CLOUDY    54  39  57 NE9       30.05R
WOOSTER        NOT AVBL
MANSFIELD      CLOUDY    52  38  58 N8        30.06R
YOUNGSTOWN     CLOUDY    54  36  50 NE6       30.07R
$$

OHZ042-051>053-060>062-070>072-077>081-240300-
  SOUTHWEST OHIO

CITY           SKY/WX    TMP DP  RH WIND       PRES   REMARKS
CINC-COVINGTON CLOUDY    60  35  39 NE9       29.97R
CINC-LUNKEN    CLOUDY    52  47  83 CALM      29.99R
HAMILTON       CLOUDY    56  40  55 NE8       29.98S
DAYTON         MOCLDY    53  35  50 NE6       30.02R
WRIGHT-PAT AFB PTCLDY    54  33  44 NE6       30.00R
DAYTON GENERAL PTCLDY    57  34  41 NE5       29.98S
WILMINGTON     PTCLDY    52  40  63 NE6       29.99S
$$

OHZ036-037-039>041-045>050-054>059-063>069-073>076-082>088-240300-
  CENTRAL AND SOUTHEAST OHIO

CITY           SKY/WX    TMP DP  RH WIND       PRES   REMARKS
COLUMBUS       CLOUDY    58  37  45 NE6       30.00R
OSU AIRPORT    MOCLDY    56  36  47 NE8       30.01R
BOLTON FIELD   CLOUDY    56  37  47 NE5       30.01R
RICKENBACK AFB CLOUDY    57  37  46 NE7       30.00R
NEWARK         CLOUDY    60  33  36 CALM      30.01R
MARION         CLOUDY    50  35  56 NE9       30.05R
LANCASTER      CLOUDY    51  41  68 N6        30.00R
ZANESVILLE     CLOUDY    59  35  40 NE3       30.01R
NEW PHILLY     NOT AVBL
$$



USA.gov is the U.S. government's official web portal to all federal, state and local government web resources and services.